Location: Blanot
(47.1713°N, 4.2340°E)
Time: 08:14:00
(UTC+00:00)

ERS-2 - Pass Details

Date: 14 July 2020
Orbit: 494 x 498 km, 98.5° (Epoch: 14 August)

Event Time Altitude Azimuth Distance (km) Brightness Sun altitude
Rises 02:29:12 0° 143° (SE) 2,571 5.6 -12.3°
Reaches altitude 10° 02:31:22 10° 135° (SE) 1,692 4.7 -12.1°
Maximum altitude 02:34:41 35° 69° (ENE) 825 3.8 -11.8°
Drops below altitude 10° 02:38:02 10° 2° (N) 1,704 5.7 -11.4°
Sets 02:40:14 0° 354° (N) 2,591 6.5 -11.2°
